{"data":{"norad_id":66473,"intl_designator":"2025-262T","name":"STARLINK-35568","alt_names":[],"object_type":"PAYLOAD","status":"ACTIVE","operator":null,"country":"US","launch_date":"2025-11-15","launch_site_code":"AFETR","launch_vehicle":null,"mission":null,"orbit_class":"UNKNOWN","rcs_meters":null,"size_class":null,"mass_kg":null,"dimensions":null,"purposes":["comms"],"wikipedia_slug":null,"has_3d_model":false,"image_url":null,"decayed_at":null,"tle_current":{"epoch":"2026-09-20T08:33:13.063680Z","epoch_age_seconds":102307,"freshness":"FRESH","line1":"1 66473U 25262T   26263.35640120  .00011011  00000+0  40888-3 0  9997","line2":"2 66473  43.0029 277.1820 0001519 268.7508  91.3170 15.27593284 48677","mean_motion":15.27593284,"eccentricity":0.0001519,"inclination_deg":43.0029,"raan_deg":277.182,"arg_perigee_deg":268.7508,"mean_anomaly_deg":91.317,"bstar":0.00040888,"rev_number":4867,"period_min":94.265928966993,"perigee_km":481.96711112712,"apogee_km":484.05152737891,"semimajor_km":6861.146319253,"source":"CELESTRAK","updated_at":"2026-09-21T09:00:35.915964Z"}}}